Regional Weather Roundup
Issued by NWS

Home | Current Version | Previous Version | Graphics & Text | Print | Product List | Glossary On
Versions: 1 2 3 4 5 6 7 8 9 10 11 12 13 14 15 16 17 18 19 20 21 22 23 24 25 26 27 28 29 30 31 32 33 34 35 36 37 38 39 40 41 42 43 44 45 46 47 48 49 50
398
ASUS43 KMPX 231601
RWRMN
WEATHER ROUNDUP FOR MINNESOTA
NATIONAL WEATHER SERVICE TWIN CITIES/CHANHASSEN MN
1000 AM CST MON JAN 23 2017


NOTE: "FAIR" INDICATES FEW OR NO CLOUDS BELOW 12,000 FEET WITH NO
SIGNIFICANT WEATHER AND/OR OBSTRUCTIONS TO VISIBILITY. N/A MEANS
CURRENT SKY AND/OR WEATHER CONDITIONS ARE NOT AVAILABLE.

MNZ060>063-068>070-231700-
   Twin Cities Metro

CITY           SKY/WX    TMP DP  RH WIND       PRES   REMARKS
TWIN CITIES    CLOUDY    35  31  85 CALM      29.81S
ST PAUL        CLOUDY    35  33  92 N3        29.83R FOG
CRYSTAL        CLOUDY    34  30  85 CALM      29.80S FOG
BLAINE         CLOUDY    36  36 100 CALM      29.80S FOG
LAKEVILLE      CLOUDY    32  32 100 W3        29.81S FOG
EDEN PRAIRIE   CLOUDY    33  31  92 W5        29.80R FOG     WCI  29
SOUTH ST PAUL  CLOUDY    34  34  97 W3        29.82R FOG
LAKE ELMO      CLOUDY    34  32  93 CALM      29.82R FOG
$$
MNZ001>005-007-008-013>017-022>024-027-028-231700-
   Northwest Minnesota

CITY           SKY/WX    TMP DP  RH WIND       PRES   REMARKS
BEMIDJI        CLOUDY    31  27  86 W6        29.75R WCI  25
HALLOCK        CLOUDY    32  30  93 SW8       29.76R WCI  25
ROSEAU         PTSUNNY   30  27  86 CALM      29.73F
WARROAD        CLOUDY    30  28  93 SW3       29.73F
THIEF RVR FALL CLOUDY    30  28  92 SW10      29.78R WCI  21
CROOKSTON      CLOUDY    30  28  93 W12       29.80R WCI  21
FOSSTON        CLOUDY    28  28 100 SW9       29.78R WCI  20
DETROIT LAKES  CLOUDY    32  28  86 W8        29.81R WCI  25
MOORHEAD       CLOUDY    32  28  86 W7        29.83R WCI  26
PARK RAPIDS    CLOUDY    32  23  69 NW7       29.77R WCI  26
MAHNOMEN       CLOUDY    30  28  93 W8        29.79R WCI  23
$$
MNZ006-009>011-018-025>026-231700-
   North Central Minnesota

CITY           SKY/WX    TMP DP  RH WIND       PRES   REMARKS
BAUDETTE       CLOUDY    32  31  96 SW3       29.73S FOG
FLAG ISLAND    CLOUDY    32  30  93 SW5       29.72S FOG     WCI  27
INTL FALLS     CLOUDY    32  30  92 W6        29.74S FOG     WCI  26
WASKISH        CLOUDY    32  30  93 CALM      29.74F
BIG FORK       CLOUDY    32  30  93 CALM      29.76S FOG
LONGVILLE      CLOUDY    30  30 100 CALM      29.76S FOG
GRAND RAPIDS   CLOUDY    32  30  92 NW6       29.78S FOG     WCI  26
CRANE LAKE     CLOUDY    34  32  93 CALM      29.77S
ORR            CLOUDY    32  30  93 CALM      29.73S
COOK           CLOUDY    32  32 100 W5        29.76S WCI  27
WALKER         CLOUDY    31  27  85 CALM      29.76R
$$
MNZ012-019>021-037-231700-
   Northeast Minnesota

CITY           SKY/WX    TMP DP  RH WIND       PRES   REMARKS
DULUTH         CLOUDY    34  33  96 NW6       29.76R WCI  29
ELY            CLOUDY    34  34 100 CALM      29.75R
HIBBING        CLOUDY    32  32 100 W5        29.75S WCI  27
EVELETH        CLOUDY    35  35  99 CALM      29.76S
DULUTH HARBOR  CLOUDY    36  34  93 CALM      29.79S
TWO HARBORS    CLOUDY    39  34  81 CALM      29.75R
SILVER BAY     CLOUDY    37  36  93 NW3       29.74R
GRAND MARAIS     N/A     38  34  85 S3        29.76R
G MARAIS ARPRT CLOUDY    30  27  86 NW5       29.72S WCI  25
$$
MNZ029>031-032-039>041-046>048-054>057-064-231700-
   West Central Minnesota

CITY           SKY/WX    TMP DP  RH WIND       PRES   REMARKS
FERGUS FALLS   CLOUDY    32  27  80 W9        29.87R WCI  24
WHEATON        CLOUDY    37  32  81 W6        29.87R
MORRIS         CLOUDY    32  28  86 W8        29.83R WCI  25
ALEXANDRIA     CLOUDY    31  26  82 NW10      29.82R WCI  22
ELBOW LAKE     CLOUDY    31  28  87 NW9       29.84R FOG     WCI  23
WADENA         CLOUDY    30  25  80 NW6       29.79R WCI  24
GLENWOOD       CLOUDY    30  27  86 W10       29.83R WCI  21
APPLETON       CLOUDY    34  28  80 W8        29.85S WCI  27
ORTONVILLE     CLOUDY    32  27  80 CALM      29.85R
MADISON        CLOUDY    36  30  80 W9        29.85S
WILLMAR        CLOUDY    34  28  80 CALM      29.85R
$$
MNZ033>034-036-042>043-049>051-058-059-231700-
   Central Minnesota

CITY           SKY/WX    TMP DP  RH WIND       PRES   REMARKS
ST CLOUD       FOG       32  32 100 NW3       29.80R VSB 1
SAUK CENTRE    CLOUDY    31  27  82 W7        29.82R WCI  25
PAYNESVILLE    CLOUDY    32  30  94 NW6       29.83R WCI  26
AITKIN         CLOUDY    34  30  86 CALM      29.76S FOG
PINE RIVER     CLOUDY    30  28  93 CALM      29.81R
BRAINERD       CLOUDY    31  30  96 W3        29.78R FOG
STAPLES        CLOUDY    28  28 100 NW5       29.79R WCI  23
LONG PRAIRIE   CLOUDY    32  27  80 CALM      29.79R
LITTLE FALLS   CLOUDY    32  30  93 CALM      29.80R
LITCHFIELD     CLOUDY    34  30  86 NW6       29.84R WCI  29
BUFFALO        CLOUDY    32  30  92 CALM      29.82R FOG
MAPLE LAKE     CLOUDY    33  32  97 CALM      29.82R FOG
HUTCHINSON     CLOUDY    33  29  85 W9        29.84R WCI  26
$$
MNZ037-044-045-052-053-231700-
   East Central Minnesota

CITY           SKY/WX    TMP DP  RH WIND       PRES   REMARKS
PRINCETON      CLOUDY    34  34 100 CALM      29.80R FOG
MORA           RAIN      34  32  93 CALM      29.81R
CAMBRIDGE      LGT SNOW  36  36 100 CALM      29.78R
RUSH CITY      CLOUDY    34  32  93 NW3       29.80S FOG
MOOSE LAKE     CLOUDY    34  32  93 N3        29.76S
HINCKLEY       CLOUDY    34  34 100 CALM      29.79S FOG
CLOQUET        CLOUDY    34  34 100 W3        29.77R
MCGREGOR       CLOUDY    34  32  93 CALM      29.77F
$$
MNZ071>073-080-081-089-090-097-098-231700-
   Southwest Minnesota

CITY           SKY/WX    TMP DP  RH WIND       PRES   REMARKS
MONTEVIDEO     CLOUDY    32  32 100 CALM      29.86S
GRANITE FALLS  CLOUDY    33  31  92 W9        29.86F WCI  26
CANBY          CLOUDY    32  29  87 W8        29.86S WCI  25
MARSHALL       CLOUDY    32  28  85 W10       29.86R WCI  24
REDWOOD FALLS  CLOUDY    33  27  78 NW9       29.85R WCI  25
OLIVIA         CLOUDY    34  30  86 NW8       29.84R WCI  27
PIPESTONE      MIX PCPN  30  28  93 W8        29.84S WCI  23
WINDOM         CLOUDY    30  30 100 W12       29.85R WCI  21
WORTHINGTON    CLOUDY    31  28  89 W7        29.86R WCI  24
JACKSON        CLOUDY    32  28  86 W7        29.86R WCI  26
TRACY          CLOUDY    32  30  93 W7        29.86R WCI  26
SLAYTON        CLOUDY    30  28  94 W6        29.85R WCI  24
$$
MNZ065>067-074>077-082>085-091>093-231700-
   South Central Minnesota

CITY           SKY/WX    TMP DP  RH WIND       PRES   REMARKS
MANKATO        CLOUDY    33  28  81 NW6       29.85R WCI  28
NEW ULM        CLOUDY    34  28  80 W6        29.85R WCI  29
ST JAMES       CLOUDY    32  28  86 W9        29.87R WCI  24
FAIRMONT       CLOUDY    32  28  85 NW8       29.86R WCI  25
GLENCOE        CLOUDY    33  32  94 W7        29.83R WCI  27
OWATONNA       CLOUDY    32  30  93 CALM      29.83R FOG
WASECA         CLOUDY    32  30  93 NW6       29.85R WCI  26
ALBERT LEA     CLOUDY    34  30  86 CALM      29.83R
$$
MNZ078>079-086>088-094>096-231700-
   Southeast Minnesota

CITY           SKY/WX    TMP DP  RH WIND       PRES   REMARKS
ROCHESTER      CLOUDY    32  31  96 CALM      29.81R
RED WING       DRIZZLE   34  32  93 CALM      29.82S
STANTON        CLOUDY    34  32  92 CALM      29.81R FOG
DODGE CENTER   PTSUNNY   32  30  93 CALM      29.81R FOG
WINONA         CLOUDY    34  34 100 CALM      29.83F FOG
AUSTIN         CLOUDY    34  28  80 NW3       29.83R
PRESTON        CLOUDY    32  31  94 NW5       29.81S FOG     WCI  27
$$
ABBREVIATIONS USED IN REMARKS
   TC - TEMPERATURES IN CELSIUS
  WCI - WIND CHILL INDEX
   HX - HEAT INDEX
  VSB - VISIBILITY
$$




USA.gov is the U.S. government's official web portal to all federal, state and local government web resources and services.